Hayward, WI

1:13 PM CST on November 20, 2019 (GMT -0600)
Sawyer County

Weather History for KHYR - September, 2019

Change the Weather History Date:

Friday, September 27, 2019

  Actual Average Record
Temperature  
Mean Temperature 56 °F -  
Max Temperature 62 °F 74 °F 80 °F (2014)
Min Temperature 50 °F 40 °F 27 °F (2012)
Degree Days  
Heating Degree Days 9    
Growing Degree Days 6 (Base 50)    
Moisture  
Dew Point 50 °F    
Average Humidity 79    
Maximum Humidity 94    
Minimum Humidity 56    
Precipitation  
Precipitation 0.22 in - - ()
Sea Level Pressure  
Sea Level Pressure 29.69 in    
Wind  
Wind Speed 7 mph (SW)    
Max Wind Speed 17 mph    
Max Gust Speed 29 mph    
Visibility 8 miles    
Events Rain    
Averages and records for this station are not official NWS values.
T = Trace of Precipitation, MM = Missing Value Source: NWS Daily Summary

Daily Weather History Graph

Daily Weather History Graph

Search for Another Location

Airport or City:

Astronomy

Sep. 27, 2019 Rise Set
Actual Time 6:58 AM CDT 6:53 PM CDT
Civil Twilight 6:28 AM CDT 7:23 PM CDT
Nautical Twilight 5:54 AM CDT 7:58 PM CDT
Astronomical Twilight 5:18 AM CDT 8:33 PM CDT
Moon 5:11 AM CDT (9/27) 6:51 PM CDT (9/27)
Length of Visible Light 12h 54m
Length of Day
11h 55m
Waning Crescent, 2% of the Moon is Illuminated
Sep 27
Waning Crescent
Sep 28
New
Oct 5
First Quarter
Oct 13
Full
Oct 21
Last Quarter

Hourly Weather History & Observations

Time (CDT) Temp. Dew Point Humidity Pressure Visibility Wind Dir Wind Speed Gust Speed Precip Events Conditions
12:53 AM 55.9 °F 46.0 °F 69% 29.66 in 10.0 mi ESE 3.5 mph - 0.00 in   Overcast
1:53 AM 57.0 °F 45.0 °F 64% 29.62 in 10.0 mi South 11.5 mph 20.7 mph N/A   Mostly Cloudy
2:53 AM 61.0 °F 45.0 °F 56% 29.57 in 10.0 mi South 17.3 mph 28.8 mph N/A   Overcast
3:53 AM 57.9 °F 48.9 °F 72% 29.59 in 5.0 mi SSW 15.0 mph 26.5 mph 0.02 in Rain Light Rain
4:53 AM 55.0 °F 50.0 °F 83% 29.57 in 10.0 mi South 10.4 mph - 0.04 in Rain Light Rain
5:53 AM 55.9 °F 51.1 °F 84% 29.58 in 10.0 mi South 11.5 mph 18.4 mph 0.01 in Rain Light Rain
6:53 AM 55.0 °F 51.1 °F 86% 29.60 in 10.0 mi South 6.9 mph - 0.00 in   Overcast
7:53 AM 54.0 °F 52.0 °F 93% 29.60 in 7.0 mi SSW 4.6 mph - 0.04 in Rain Light Rain
8:14 AM 55.0 °F 52.0 °F 89% 29.59 in 2.5 mi South 5.8 mph - 0.03 in Rain Light Rain
8:22 AM 55.0 °F 52.0 °F 89% 29.59 in 5.0 mi South 6.9 mph - 0.03 in Rain Light Rain
8:53 AM 55.9 °F 53.1 °F 90% 29.61 in 4.0 mi SSW 5.8 mph - 0.05 in Rain Light Rain
9:38 AM 55.9 °F 53.1 °F 90% 29.60 in 2.0 mi SSW 8.1 mph - 0.04 in Rain Rain
9:48 AM 55.4 °F 53.6 °F 94% 29.61 in 6.0 mi WSW 5.8 mph - 0.05 in Rain Light Rain
9:53 AM 55.9 °F 53.1 °F 90% 29.62 in 6.0 mi WSW 3.5 mph - 0.05 in Rain Light Rain
10:38 AM 55.9 °F 54.0 °F 93% 29.62 in 5.0 mi WSW 4.6 mph - 0.01 in Rain Light Rain
10:46 AM 57.0 °F 54.0 °F 89% 29.62 in 9.0 mi Variable 5.8 mph - 0.01 in Rain Light Rain
10:53 AM 55.9 °F 54.0 °F 93% 29.64 in 10.0 mi West 4.6 mph - 0.01 in   Overcast
11:35 AM 57.0 °F 54.0 °F 89% 29.63 in 10.0 mi Variable 5.8 mph - N/A   Overcast
11:53 AM 57.0 °F 53.1 °F 87% 29.65 in 10.0 mi West 5.8 mph - N/A   Mostly Cloudy
12:42 PM 57.9 °F 53.1 °F 84% 29.66 in 10.0 mi Variable 5.8 mph - N/A   Overcast
12:53 PM 57.9 °F 52.0 °F 81% 29.68 in 10.0 mi West 5.8 mph - N/A   Mostly Cloudy
1:53 PM 60.1 °F 51.1 °F 72% 29.68 in 10.0 mi Variable 5.8 mph - N/A   Mostly Cloudy
2:53 PM 60.1 °F 48.9 °F 67% 29.69 in 10.0 mi Variable 3.5 mph - N/A   Overcast
3:53 PM 61.0 °F 48.9 °F 64% 29.71 in 10.0 mi Calm Calm - N/A   Overcast
4:53 PM 61.0 °F 46.9 °F 60% 29.74 in 10.0 mi Variable 3.5 mph - N/A   Mostly Cloudy
5:53 PM 59.0 °F 48.0 °F 67% 29.78 in 10.0 mi North 4.6 mph - N/A   Overcast
6:53 PM 57.0 °F 48.0 °F 72% 29.82 in 10.0 mi North 3.5 mph - N/A   Overcast
7:53 PM 55.0 °F 46.9 °F 74% 29.86 in 10.0 mi North 5.8 mph - N/A   Overcast
8:53 PM 54.0 °F 46.0 °F 75% 29.88 in 10.0 mi North 5.8 mph - N/A   Overcast
9:34 PM 53.1 °F 46.0 °F 77% 29.88 in 10.0 mi North 9.2 mph - N/A   Overcast
9:53 PM 52.0 °F 45.0 °F 77% 29.91 in 10.0 mi NNE 11.5 mph - N/A   Overcast
10:53 PM 51.1 °F 42.1 °F 71% 29.93 in 10.0 mi NNE 12.7 mph 20.7 mph N/A   Overcast
11:53 PM 50.0 °F 42.1 °F 74% 29.96 in 10.0 mi NNE 9.2 mph - N/A   Overcast